Simultaneous Nadir Overpasses (SNOs) Predictions

Prediction of SNOs between NOAA-19 and TERRA Satellite Orbit:

Table of predicted SNOs for the next 14.0 days since TLE Epoch: 2/19/2022
Index Date (NOAA-19) Time (NOAA-19) Lat,Lon (NOAA-19) SZA (NOAA-19 ) Date (TERRA) Time (TERRA) Lat,Lon (TERRA) SZA (TERRA ) Distance(km) Time Diff (sec)
1 02/19/2022 18:48:34 80.65, -66.50 93.09 02/19/2022 18:48:53 80.66, -66.57 93.10 1.79 19
2 02/19/2022 19:39:28 -80.64, 101.04 86.91 02/19/2022 19:38:20 -80.66, 101.01 86.93 1.86 68
3 02/22/2022 00:21:32 -80.67, 29.86 87.73 02/22/2022 00:22:33 -80.65, 29.93 87.71 1.74 61
4 02/22/2022 01:12:36 80.65,-162.53 92.28 02/22/2022 01:11:59 80.66,-162.41 92.28 2.17 37
5 02/24/2022 06:45:33 -80.65, -65.72 88.53 02/24/2022 06:45:38 -80.68, -65.61 88.50 3.26 5
6 02/26/2022 12:18:40 80.66, 30.80 90.65 02/26/2022 12:19:17 80.67, 30.86 90.67 1.19 37
7 02/26/2022 13:09:35 -80.66,-161.67 89.35 02/26/2022 13:08:44 -80.67,-161.52 89.35 3.12 51
8 02/28/2022 18:42:41 80.66, -64.96 89.82 02/28/2022 18:42:23 80.65, -65.10 89.80 2.67 18
9 03/03/2022 00:15:39 -80.67, 31.50 91.03 03/03/2022 00:16:01 -80.67, 31.62 91.02 2.27 22



Historial Predications of SNOs between NOAA-19 and TERRA
